sat.trackr.live / text

‹ back to catalog

GAOFEN-4

NORAD 41194 · 2015-083A

PAYLOAD ACTIVE UNKNOWN

§ Identity

Operator
Country
PRC
Launch date
2015-12-28
Launch site
XICLF
Launch vehicle
Mass (kg)
RCS (m²)
22.13

Purposes: comms, earth_obs

External: N2YO · Heavens-Above · Gunter

§ Orbital elements

Epoch: 2026-05-25T00:49:28.898400Z

Period
1,436.16 min
Inclination
0.3702°
Eccentricity
0.0002463
Mean motion
1.00267079 rev/d
Perigee alt
35,777.5 km
Apogee alt
35,798.3 km
Semi-major
42,166.1 km
B*
0.0000e+0
RAAN
83.1964°
Arg perigee
130.4738°
Mean anomaly
146.9806°
Rev number
3,829

§ Raw data

GAOFEN-41 41194U 15083A   26145.03436225 -.00000336  00000+0  00000+0 0  99902 41194   0.3702  83.1964 0002463 130.4738 146.9806  1.00267079 38293

JSON: /api/v1/satellites/41194 · /tle

For live sub-satellite position, see the globe view (requires WebGL).

§ Visibility from observer

Set your observer location to see the next 7 days of passes ≥ 10°. The values pass through the URL so the page stays shareable.

No JS? Fill the form by hand. The geolocation button needs JavaScript.